Location: Omaha
(41.2590°N, 95.9380°W)
Time: 20:38:36
(UTC-05:00)

ISS - Pass Details

Date: 14 October 2017
Orbit: 401 x 408 km, 51.6° (Epoch: 19 October)

Event Time Altitude Azimuth Distance (km) Brightness Sun altitude
Rises 19:59:07 0° 301° (WNW) 2,325 1.1 -14.9°
Reaches altitude 10° 20:01:14 10° 296° (WNW) 1,463 0.1 -15.3°
Maximum altitude 20:04:25 48° 221° (SW) 538 -3.0 -15.9°
Enters shadow 20:06:18 21° 154° (SSE) 973 -2.2 -16.3°
